DW2640 Weather Reports


time (UTC)temp
F
wind
direction
speed
knots
gust
knots
rain 1hr
in
rain 24hr
in
rain mn
in
humidity
%
barometer
mb
20260505083014 60 46 13.0 20.9 0.00 0.00 0.00 78 1001.6
20260505081511 61 92 16.5 26.9 0.00 0.00 0.00 75 1001.3
20260505080007 64 74 13.0 20.9 0.00 0.00 0.00 70 1001.1
20260505074502 66 60 11.3 20.9 0.00 0.00 0.00 74 1000.6
20260505073101 67 55 10.4 17.4 0.00 0.00 0.00 75 1000.5
20260505071557 67 60 6.1 10.4 0.00 0.00 0.00 73 1000.4
20260505070056 68 88 4.3 8.7 0.00 0.00 0.00 73 1000.4
20260505064550 68 73 7.8 9.6 0.00 0.00 0.00 73 1000.4
20260505063047 69 98 4.3 7.0 0.00 0.00 0.00 72 1000.1
20260505061545 69 108 3.5 11.3 0.00 0.00 0.00 71 999.9
20260505060044 69 144 7.0 13.0 0.00 0.00 0.00 71 999.3
20260505054542 69 192 8.7 16.5 0.00 0.00 0.00 71 999.5
20260505053039 69 176 5.2 11.3 0.00 0.00 0.00 71 999.6
20260505051537 69 208 7.0 15.6 0.00 0.00 0.00 69 999.3
20260505050104 70 138 6.1 13.0 0.00 0.00 0.00 66 999.0
20260505041547 69 127 3.5 10.4 0.00 0.00 0.00 70 999.2
20260505040030 70 178 4.3 16.5 0.00 0.00 0.00 73 998.8
20260505034528 72 217 8.7 13.9 0.00 0.00 0.00 71 999.1
20260505033027 72 163 2.6 11.3 0.00 0.00 0.00 68 999.1
20260505031525 72 206 2.6 10.4 0.00 0.00 0.00 67 999.6
20260505030029 73 190 6.1 12.2 0.00 0.00 0.00 66 999.5
20260505024526 73 183 6.1 16.5 0.00 0.00 0.00 65 999.7
20260505023028 74 186 5.2 11.3 0.00 0.00 0.00 64 999.4
20260505021526 74 167 7.8 13.0 0.00 0.00 0.00 63 999.7
20260505020021 74 175 5.2 11.3 0.00 0.00 0.00 62 1000.0
20260505014519 74 159 5.2 10.4 0.00 0.00 0.00 60 999.2
20260505013020 75 164 4.3 8.7 0.00 0.00 0.00 58 999.1
20260505011527 75 170 3.5 8.7 0.00 0.00 0.00 56 998.8
20260505010017 76 149 5.2 9.6 0.00 0.00 0.00 55 998.5
20260505004529 76 150 5.2 9.6 0.00 0.00 0.00 54 998.6
20260505003015 77 126 3.5 8.7 0.00 0.00 0.00 52 998.8
20260505001514 78 182 5.2 11.3 0.00 0.00 0.00 50 998.6
20260505000021 78 157 3.5 12.2 0.00 0.00 0.00 49 998.8
20260504234512 79 209 4.3 9.6 0.00 0.00 0.00 48 999.1
20260504233011 79 211 6.1 10.4 0.00 0.00 0.00 47 999.1
20260504231510 80 193 7.8 16.5 0.00 0.00 0.00 45 999.1
20260504230016 81 195 8.7 18.2 0.00 0.00 0.00 43 999.0
20260504224508 81 191 8.7 16.5 0.00 0.00 0.00 43 999.1
20260504223007 82 244 7.8 15.6 0.00 0.00 0.00 41 999.2
20260504221506 82 242 7.0 18.2 0.00 0.00 0.00 41 999.1
20260504220006 83 193 7.8 15.6 0.00 0.00 0.00 40 999.2
20260504214506 83 166 5.2 17.4 0.00 0.00 0.00 39 999.4
20260504213013 83 166 10.4 18.2 0.00 0.00 0.00 39 999.8
20260504211510 83 208 7.8 15.6 0.00 0.00 0.00 39 999.5
20260504210002 83 252 7.8 16.5 0.00 0.00 0.00 39 999.8
20260504204603 83 238 7.8 16.5 0.00 0.00 0.00 38 999.9
20260504203121 84 244 7.8 15.6 0.00 0.00 0.00 38 999.9
20260504201558 84 190 7.0 18.2 0.00 0.00 0.00 38 1000.2
20260504200056 84 213 8.7 15.6 0.00 0.00 0.00 36 1000.3
20260504194603 85 185 7.0 13.9 0.00 0.00 0.00 34 1000.6
20260504193100 84 222 5.2 13.0 0.00 0.00 0.00 35 1000.6
20260504191550 83 246 7.8 15.6 0.00 0.00 0.00 35 1000.9
20260504190109 84 163 7.8 13.0 0.00 0.00 0.00 35 1000.8
20260504184558 83 214 6.1 16.5 0.00 0.00 0.00 36 1000.9
20260504183045 83 242 7.0 13.9 0.00 0.00 0.00 37 1001.1
20260504181544 82 173 5.2 13.9 0.00 0.00 0.00 37 1001.5
20260504180044 81 213 7.8 13.9 0.00 0.00 0.00 37 1001.5
20260504174538 81 231 5.2 11.3 0.00 0.00 0.00 39 1001.5
20260504173045 79 268 7.0 12.2 0.00 0.00 0.00 40 1001.5
20260504171536 79 217 8.7 17.4 0.00 0.00 0.00 40 1001.6